Location: Starhoo Observatory
(41.8578°N, 70.9669°W)
Time: 02:38:06
(UTC-04:00)

ISS - Visible Passes

Search period start: 30 September 2016 00:00
Search period end: 10 October 2016 00:00
Orbit: 400 x 409 km, 51.6° (Epoch: 30 September)

Date Brightness Start Highest point End Pass type
(mag) Time Alt. Az. Time Alt. Az. Time Alt. Az.
30 Sep -2.5 18:59:00 10° SSW 19:01:58 34° SE 19:04:58 10° ENE visible
30 Sep -1.4 20:35:28 10° W 20:37:47 29° NW 20:37:47 29° NW visible
01 Oct -2.7 19:43:00 10° WSW 19:46:11 53° NNW 19:47:59 23° NE visible
02 Oct -3.4 18:50:45 10° SW 18:53:59 85° SE 18:57:15 10° NE visible
02 Oct -1.1 20:28:13 10° WNW 20:30:43 21° NNW 20:30:43 21° NNW visible
03 Oct -1.6 19:35:32 10° W 19:38:25 28° NNW 19:40:41 14° NNE visible
04 Oct -2.3 18:42:58 10° WSW 18:46:05 43° NNW 18:49:14 10° NE visible
04 Oct -0.8 20:21:02 10° NW 20:23:11 16° N 20:23:13 16° N visible
05 Oct -1.1 19:28:16 10° WNW 19:30:44 19° NNW 19:33:03 11° NNE visible
06 Oct -0.8 20:13:39 10° NW 20:15:28 15° N 20:15:28 15° N visible
07 Oct -0.9 19:20:59 10° NW 19:23:04 16° N 19:25:08 10° NNE visible
08 Oct -0.9 20:05:52 10° NNW 20:07:33 15° N 20:07:33 15° N visible
09 Oct -0.9 19:13:27 10° NW 19:15:23 15° N 19:17:15 10° NE visible
09 Oct 0.1 20:49:53 10° NW 20:49:54 10° NW 20:49:54 10° NW visible
